This is the latest recevied weather packets stored in our database for station/object LA1HSA-13. If no packets are shown the sender has not sent any weather packets the latest 10 day(s).
| Time | Temp. | Humidity | Pressure | Rain* | Wind** | Luminosity | Snow |
|---|---|---|---|---|---|---|---|
| 1777756803 | 8.89° C | 96% | 1009.2 hPa | 0 mm | - | - | - |
| 1777756203 | 8.89° C | 96% | 1008.8 hPa | 0 mm | - | - | - |
| 1777755603 | 9.44° C | 95% | 1009 hPa | 0 mm | - | - | - |
| 1777755003 | 8.89° C | 94% | 1009 hPa | 0 mm | - | - | - |
| 1777754403 | 9.44° C | 94% | 1009.3 hPa | 0 mm | - | - | - |
| 1777753803 | 9.44° C | 93% | 1009.1 hPa | 0 mm | - | - | - |
| 1777753203 | 9.44° C | 92% | 1009 hPa | 0 mm | - | - | - |
| 1777752603 | 10° C | 89% | 1009.3 hPa | 0 mm | - | - | - |
| 1777752003 | 9.44° C | 82% | 1009.1 hPa | 0 mm | - | - | - |
| 1777751403 | 9.44° C | 81% | 1009.4 hPa | 0 mm | - | - | - |
| 1777750803 | 10° C | 80% | 1009.2 hPa | 0 mm | - | - | - |
| 1777750203 | 10° C | 79% | 1009.3 hPa | 0 mm | - | - | - |
| 1777749603 | 10° C | 79% | 1009.2 hPa | 0 mm | - | - | - |
| 1777749003 | 10.56° C | 77% | 1009 hPa | 0 mm | - | - | - |
| 1777748404 | 10.56° C | 75% | 1009.1 hPa | 0 mm | - | - | - |
| 1777747803 | 10.56° C | 74% | 1009.2 hPa | 0 mm | - | - | - |
| 1777747203 | 11.11° C | 73% | 1009 hPa | 0 mm | - | - | - |
| 1777746603 | 11.11° C | 73% | 1008.9 hPa | 0 mm | - | - | - |
| 1777746003 | 11.11° C | 72% | 1008.7 hPa | 0 mm | - | - | - |
| 1777745404 | 11.11° C | 73% | 1009 hPa | 0 mm | - | - | - |
| 1777744803 | 11.11° C | 72% | 1009.1 hPa | 0 mm | - | - | - |
| 1777744203 | 11.11° C | 71% | 1009.3 hPa | 0 mm | - | - | - |
| 1777743603 | 11.67° C | 71% | 1009.2 hPa | 0 mm | - | - | - |
| 1777743003 | 11.67° C | 69% | 1009.1 hPa | 0 mm | - | - | - |
| 1777742403 | 11.67° C | 69% | 1009.3 hPa | 0 mm | - | - | - |
* Rain latest hour (hover to see other rain measurements)
** Current wind speed in m/s (hover to see current wind gust speed)